TimePDT,TemperatureF,Dew PointF,Humidity,Sea Level PressureIn,VisibilityMPH,Wind Direction,Wind SpeedMPH,Gust SpeedMPH,PrecipitationIn,Events,Conditions,WindDirDegrees,DateUTC
12:53 AM,36.0,33.1,89,30.23,10.0,SE,5.8,-,N/A,,Clear,140,2013-03-22 07:53:00
1:53 AM,37.0,32.0,82,30.24,10.0,ESE,4.6,-,N/A,,Partly Cloudy,120,2013-03-22 08:53:00
2:53 AM,36.0,32.0,86,30.25,10.0,SSE,5.8,-,N/A,,Overcast,150,2013-03-22 09:53:00
3:53 AM,37.0,32.0,82,30.25,10.0,SE,9.2,-,N/A,,Overcast,140,2013-03-22 10:53:00
4:53 AM,37.9,30.9,76,30.27,10.0,SSE,5.8,-,N/A,,Overcast,160,2013-03-22 11:53:00
5:53 AM,37.0,30.9,79,30.27,10.0,SE,12.7,-,N/A,,Overcast,140,2013-03-22 12:53:00
6:53 AM,36.0,30.9,82,30.28,10.0,SE,8.1,-,N/A,,Overcast,140,2013-03-22 13:53:00
7:53 AM,37.0,30.0,76,30.30,10.0,SE,3.5,-,N/A,,Overcast,130,2013-03-22 14:53:00
8:53 AM,37.9,30.9,76,30.31,10.0,East,3.5,-,N/A,,Mostly Cloudy,100,2013-03-22 15:53:00
9:53 AM,39.0,33.1,79,30.32,10.0,NE,4.6,-,0.01,Rain,Light Rain,50,2013-03-22 16:53:00
10:09 AM,39.2,33.8,81,30.32,10.0,NE,4.6,-,0.00,,Overcast,40,2013-03-22 17:09:00
10:53 AM,41.0,32.0,70,30.33,10.0,ESE,5.8,-,0.00,,Overcast,110,2013-03-22 17:53:00
11:26 AM,42.8,33.8,70,30.33,10.0,Variable,3.5,-,N/A,,Overcast,0,2013-03-22 18:26:00
11:53 AM,42.1,32.0,67,30.33,10.0,Calm,Calm,-,N/A,,Overcast,0,2013-03-22 18:53:00
12:53 PM,43.0,30.0,60,30.33,10.0,ENE,3.5,-,N/A,,Mostly Cloudy,60,2013-03-22 19:53:00
1:53 PM,46.0,30.9,56,30.33,10.0,West,5.8,-,N/A,,Mostly Cloudy,280,2013-03-22 20:53:00
2:53 PM,46.0,28.9,51,30.32,10.0,Calm,Calm,-,N/A,,Clear,0,2013-03-22 21:53:00
3:53 PM,46.9,24.1,41,30.32,10.0,NW,5.8,-,N/A,,Scattered Clouds,310,2013-03-22 22:53:00
4:53 PM,48.0,26.1,42,30.32,10.0,Variable,5.8,-,N/A,,Scattered Clouds,0,2013-03-22 23:53:00
5:53 PM,48.0,26.1,42,30.33,10.0,NNE,5.8,-,N/A,,Scattered Clouds,30,2013-03-23 00:53:00
6:53 PM,46.9,24.1,41,30.33,10.0,NE,4.6,-,N/A,,Partly Cloudy,40,2013-03-23 01:53:00
7:53 PM,45.0,23.0,42,30.34,10.0,Variable,3.5,-,N/A,,Clear,0,2013-03-23 02:53:00
8:53 PM,43.0,26.1,51,30.36,10.0,Calm,Calm,-,N/A,,Clear,0,2013-03-23 03:53:00
9:53 PM,39.9,27.0,60,30.38,10.0,Calm,Calm,-,N/A,,Clear,0,2013-03-23 04:53:00
10:53 PM,39.9,28.9,65,30.38,10.0,Calm,Calm,-,N/A,,Clear,0,2013-03-23 05:53:00
11:53 PM,37.9,28.9,70,30.39,10.0,Calm,Calm,-,N/A,,Clear,0,2013-03-23 06:53:00